Regional Weather Roundup
Issued by NWS

Home | Current Version | Previous Version | Text Only | Print | Product List | Glossary On
Versions: 1 2 3 4 5 6 7 8 9 10 11 12 13 14 15 16 17 18 19 20 21 22 23 24 25 26 27 28 29 30 31 32 33 34 35 36 37 38 39 40 41 42 43 44 45 46 47 48 49 50
000
ASUS44 KFWD 272103
RWRTX
NORTH TEXAS HOURLY WEATHER ROUNDUP
NATIONAL WEATHER SERVICE FORT WORTH TX
400 PM CDT SAT MAY 27 2017

NOTE: "FAIR" INDICATES FEW OR NO CLOUDS BELOW 12,000 FEET WITH NO
SIGNIFICANT WEATHER AND/OR OBSTRUCTIONS TO VISIBILITY.

TXZ118-119-272200-
DALLAS/FORT WORTH METROPLEX

CITY           SKY/WX    TMP DP  RH WIND       PRES   REMARKS
DFW AIRPORT    PTSUNNY   90  76  63 S17G25    29.77F HAZE    HX 101
DALLAS LOVE    CLOUDY    89  74  60 S15G26    29.79F HAZE    HX  98
FTW MEACHAM    MOSUNNY   93  76  57 S16G28    29.77F HX 105
DAL-EXECUTIVE  CLOUDY    89  76  65 S16G23    29.80F HAZE    HX 100
FTW-ALLIANCE   PTSUNNY   91  76  61 S14G21    29.77F HX 103
FTW-NAS-JRB    PTSUNNY   93  75  55 S15       29.78F HAZE    HX 104
FTW-SPINKS     PTSUNNY   90  75  62 S17G26    29.82F HAZE    HX 100
ARLINGTON      CLOUDY    88  74  63 S13G22    29.80F HX  96
GRAND PRAIRIE  MOSUNNY   88  73  62 S15G23    29.81F HAZE    HX  96
ADDISON        PTSUNNY   88  73  62 S17G29    29.80F HAZE    HX  96
MESQUITE       CLOUDY    84  75  74 S10       29.82F FOG     HX  92
LANCASTER      CLOUDY    85  74  70 S14G20    29.83F HAZE    HX  93
$$

TXZ091>094-102>105-117-120-121-131>134-272200-
NORTH CENTRAL TEXAS

CITY           SKY/WX    TMP DP  RH WIND       PRES   REMARKS
SHRMAN/DENISON SUNNY     91  74  56 S21       29.78F HX 100
GAINESVILLE    SUNNY     94  73  50 S18G26    29.77F HX 103
BOWIE          SUNNY     96  71  44 S14G20    29.75F HX 104
BRIDGEPORT     SUNNY     97  70  41 S12G22    29.76F HX 103
DECATUR        SUNNY     95  73  49 S17       29.77F HX 104
DENTON         MOSUNNY   91  77  63 S21G28    29.77F HX 104
MCKINNEY       PTSUNNY   88  77  69 S18       29.79F HAZE    HX 100
BONHAM         PTSUNNY   88  75  66 S17G23    29.80F HAZE    HX  97
GREENVILLE     CLOUDY    86  77  74 S10       29.83F HAZE    HX  97
ROCKWALL       CLOUDY    85  76  73 S17G24    29.82F HAZE    HX  94
TERRELL        CLOUDY    85  75  72 S9        29.83F HAZE    HX  93
WAXAHACHIE     CLOUDY    86  75  69 S15G22    29.82F HAZE    HX  96
CLEBURNE       MOSUNNY   90  79  70 S16G23    29.82F HAZE    HX 105
GRANBURY       PTSUNNY   93  74  54 S16G24    29.80S HX 103
$$

TXZ083>090-098>101-113>116-127>130-139>142-154-155-272200-
WESTERN NORTH TEXAS

CITY           SKY/WX    TMP DP  RH WIND       PRES   REMARKS
WICHITA FALLS  SUNNY     99  68  36 SW14      29.71F HX 104
WF-KICKAPOO    SUNNY     99  65  33 S13G18    29.74F HX 102
VERNON         SUNNY    100  36  11 SE8       29.73F HX  95
ABILENE        SUNNY     99  59  26 SW9       29.80F HX  99
ABILENE-DYESS  MOSUNNY   98  61  29 SW9       29.78F HX  98
GRAHAM         SUNNY    100  71  38 S7        29.73F HX 108
BRECKENRIDGE   MOSUNNY   99  67  35 SW12G17   29.76F HAZE    HX 104
CISCO          MOSUNNY   95  73  49 SW15G21   29.81F HX 105
EASTLAND       PTSUNNY   94  74  51 S16       29.79F HX 104
RANGER         PTSUNNY   92  75  57 S15       29.80F HX 103
MINERAL WELLS  MOSUNNY   96  74  48 S20G25    29.75F HX 107
STEPHENVILLE   PTSUNNY   89  74  62 S10G17    29.84F HX  98
COMANCHE       MOSUNNY   92  76  60 S14G20    29.82F HX 104
BROWNWOOD      LGT RAIN  93  75  55 S12G20    29.80F HX 104
COLEMAN        MOSUNNY   98  68  38 S12G18    29.81F HX 103
$$

TXZ143>147-156>162-174-175-272200-
CENTRAL TEXAS

CITY           SKY/WX    TMP DP  RH WIND       PRES   REMARKS
WACO           CLOUDY    89  75  63 S16       29.83F HAZE    HX  99
WACO-MCGREGOR  MOSUNNY   90  76  63 S14       29.83F HX 101
HILLSBORO      CLOUDY    90  76  64 S20       29.82F HAZE    HX 101
CORSICANA      CLOUDY    89  76  65 S13       29.84F HAZE    HX 100
MEXIA          PTSUNNY   90  76  63 S15G23    29.83F HX 101
HEARNE         MOSUNNY   92  76  58 S15       29.84F HX 104
CAMERON        PTSUNNY   92  75  55 S13G23    29.83F HX 103
TEMPLE         CLOUDY    89  77  67 S15       29.84F HX 101
KILLEEN        PTSUNNY   88  75  65 S13       29.84F HX  98
KILLEEN-SKYLRK CLOUDY    89  76  65 S15       29.84F HX 100
FORT HOOD      CLOUDY    87  75  66 S10       29.81F HX  96
HAMILTON       PTSUNNY   88  75  64 S21       29.85F HAZE    HX  98
$$

TXZ095>097-106>112-122>126-135>138-148>153-164>167-272200-
EAST TEXAS

CITY           SKY/WX    TMP DP  RH WIND       PRES   REMARKS
PARIS          PTSUNNY   82  73  74 S13G23    29.84S
SULPHUR SPRNGS CLOUDY    83  75  76 S10       29.85F HAZE    HX  91
MOUNT PLEASANT SUNNY     84  74  70 S8        29.86F HX  91
GILMER         CLOUDY    85  75  72 S8        29.85F HX  93
MINEOLA        CLOUDY    84  77  79 S7        29.84F HAZE    HX  94
TYLER          CLOUDY    87  75  67 S16       29.85F HAZE    HX  96
LONGVIEW       PTSUNNY   88  77  69 S10       29.85F HX 100
MARSHALL       PTSUNNY   85  74  68 S8        29.89F HX  93
ATHENS         PTSUNNY   88  73  62 S10       29.83F HX  96
PALESTINE      PTSUNNY   89  76  65 S9        29.87F HX 100
JACKSONVILLE   MOSUNNY   88  76  66 S8        29.89F HX  98
HENDERSON      PTSUNNY   88  75  63 S10       29.88F HX  98
CENTER         MOCLDY    93  76  57 S9G22     29.90F HX 106
NACOGDOCHES    PTSUNNY   90  75  62 SW10G18   29.86F HX 100
LUFKIN         MOSUNNY   90  75  61 S15G22    29.87F HX 100
$$

SUPPLEMENTAL OBSERVATIONS (NWS FORT WORTH AREA)

CITY           SKY/WX    TMP DP  RH WIND       PRES   REMARKS
$$

SUPPLEMENTAL OBSERVATIONS (NWS NORMAN AREA)

CITY           SKY/WX    TMP DP  RH WIND       PRES   REMARKS
GOODLETT         N/A    101  35  10 N12G21    29.75S HX  95
ODELL            N/A    100  49  17 E3        29.75F HX  97
CROWELL          N/A    102  36  10 W1        29.74F HX  96
KNOX CITY        N/A    103  35   9 SW14G21   29.75F HX  97
SEYMOUR          N/A     99  61  28 S13       29.73F HX 100
$$

SUPPLEMENTAL OBSERVATIONS (NWS SAN ANGELO AREA)

CITY           SKY/WX    TMP DP  RH WIND       PRES   REMARKS
WEINERT          N/A    102  50  17 SW8       29.75F HX  99
HASKELL          N/A    100  52  20 SW12      29.76F HX  97
THROCKMORTON     N/A     98  66  35 SW9G16    29.77F HX 102
STAMFORD         N/A    100  57  23 SW15      29.78F HX  99
CLYDE            N/A     96  68  40 SW5       29.83F HX 101
$$

SUPPLEMENTAL OBSERVATIONS (NWS SHREVEPORT AREA)

CITY           SKY/WX    TMP DP  RH WIND       PRES   REMARKS
$$

SUPPLEMENTAL OBSERVATIONS ARE A COLLECTION OF AUTOMATED INSTRUMENTS
THAT ARE MAINTAINED BY A VARIETY OF FEDERAL AND STATE AGENCIES.
CERTAIN ELEMENTS...SUCH AS HUMIDITY VALUES AND SUSTAINED WIND
SPEEDS...MAY BE APPROXIMATED.





USA.gov is the U.S. government's official web portal to all federal, state and local government web resources and services.